DW7888 Weather Reports


time (UTC)temp
C
wind
direction
speed
KPH
gust
KPH
rain 1hr
cm
rain 24hr
cm
rain mn
cm
humidity
%
barometer
mb
20260906121504 21 360 0.0 4.8 0.00 2.41 0.00 94 1014.8
20260906121009 21 285 0.0 4.8 0.00 2.41 0.00 94 1014.7
20260906120515 21 245 0.0 0.0 0.00 2.41 0.00 95 1014.6
20260906120007 21 242 0.0 0.0 0.00 2.41 0.00 95 1014.5
20260906115511 20 242 0.0 0.0 0.00 2.41 0.00 95 1014.4
20260906115012 20 242 0.0 0.0 0.00 2.41 0.00 95 1014.3
20260906114505 20 242 0.0 0.0 0.00 2.41 0.00 95 1014.3
20260906114013 20 242 0.0 0.0 0.00 2.41 0.00 95 1014.2
20260906113517 20 242 0.0 0.0 0.00 2.41 0.00 96 1014.1
20260906113008 20 242 0.0 0.0 0.00 2.41 0.00 96 1014.1
20260906112511 20 242 0.0 0.0 0.00 2.41 0.00 96 1014.0
20260906112017 21 242 0.0 0.0 0.00 2.41 0.00 95 1013.9
20260906111507 21 176 0.0 0.0 0.00 2.41 0.00 96 1013.7
20260906111011 21 176 0.0 0.0 0.00 2.41 0.00 96 1013.6
20260906110513 21 284 0.0 0.0 0.00 2.41 0.00 96 1013.5
20260906110013 21 284 0.0 0.0 0.00 2.41 0.00 96 1013.6
20260906105513 21 284 0.0 0.0 0.00 2.41 0.00 96 1013.6
20260906105017 21 284 0.0 0.0 0.00 2.41 0.00 96 1013.5
20260906104516 21 284 0.0 0.0 0.00 2.41 0.00 96 1013.5
20260906104012 21 284 0.0 0.0 0.00 2.41 0.00 96 1013.4
20260906103504 21 284 0.0 0.0 0.00 2.41 0.00 96 1013.4
20260906103010 21 284 0.0 0.0 0.00 2.41 0.00 97 1013.3
20260906102513 21 284 0.0 0.0 0.00 2.41 0.00 96 1013.4
20260906102007 21 284 0.0 0.0 0.00 2.41 0.00 96 1013.3
20260906101510 21 284 0.0 0.0 0.00 2.41 0.00 96 1013.3
20260906101011 21 284 0.0 0.0 0.00 2.41 0.00 96 1013.2
20260906100503 21 5 0.0 0.0 0.00 2.41 0.00 96 1013.1
20260906100012 21 5 0.0 0.0 0.00 2.41 0.00 96 1013.0
20260906095512 21 5 0.0 0.0 0.00 2.41 0.00 96 1013.0
20260906095006 21 5 0.0 0.0 0.00 2.41 0.00 96 1012.9
20260906094511 22 5 0.0 0.0 0.00 2.41 0.00 96 1012.9
20260906094003 22 5 0.0 0.0 0.00 2.41 0.00 96 1012.9
20260906093503 22 5 0.0 0.0 0.00 2.41 0.00 96 1013.0
20260906093003 22 5 0.0 0.0 0.00 2.41 0.00 96 1012.9
20260906092503 22 5 0.0 0.0 0.00 2.41 0.00 96 1012.8
20260906092004 22 5 0.0 0.0 0.00 2.41 0.00 96 1012.6
20260906091503 22 5 0.0 0.0 0.00 2.41 0.00 96 1012.7
20260906091003 22 5 0.0 0.0 0.00 2.41 0.00 96 1012.6
20260906090506 22 5 0.0 0.0 0.00 2.41 0.00 96 1012.6
20260906090004 22 5 0.0 0.0 0.00 2.41 0.00 96 1012.5
20260906085504 22 5 0.0 0.0 0.00 2.41 0.00 96 1012.5
20260906085003 22 5 0.0 0.0 0.00 2.41 0.00 96 1012.5
20260906084504 22 5 0.0 0.0 0.00 2.41 0.00 96 1012.4
20260906084005 22 5 0.0 0.0 0.00 2.41 0.00 96 1012.4
20260906083502 22 5 0.0 0.0 0.00 2.41 0.00 96 1012.4
20260906083004 22 5 0.0 0.0 0.00 2.41 0.00 96 1012.4
20260906082503 22 5 0.0 0.0 0.00 2.41 0.00 96 1012.4
20260906082006 22 5 0.0 0.0 0.00 2.41 0.00 96 1012.4
20260906081510 22 5 0.0 0.0 0.00 2.41 0.00 96 1012.4
20260906081003 22 5 0.0 0.0 0.00 2.41 0.00 96 1012.4
20260906080507 22 5 0.0 0.0 0.00 2.41 0.00 96 1012.4
20260906080004 22 5 0.0 0.0 0.00 2.41 0.00 96 1012.4
20260906075503 22 5 0.0 0.0 0.00 2.41 0.00 96 1012.3
20260906075003 22 309 0.0 0.0 0.00 2.41 0.00 96 1012.3
20260906074503 22 309 0.0 0.0 0.00 2.41 0.00 96 1012.3
20260906074003 22 309 0.0 0.0 0.00 2.41 0.00 96 1012.3
20260906073502 22 309 0.0 0.0 0.00 2.41 0.00 96 1012.3
20260906073004 22 309 0.0 0.0 0.00 2.41 0.00 96 1012.3
20260906072504 22 309 0.0 0.0 0.00 2.41 0.00 96 1012.3
20260906072004 22 309 0.0 0.0 0.00 2.41 0.00 96 1012.3
20260906071503 22 309 0.0 0.0 0.00 2.41 0.00 96 1012.2
20260906071003 22 309 0.0 0.0 0.00 2.41 0.00 96 1012.2
20260906070505 22 309 0.0 0.0 0.00 2.41 0.00 96 1012.2
20260906070003 22 309 0.0 0.0 0.00 2.41 0.00 96 1012.2
20260906065503 22 309 0.0 0.0 0.00 2.41 0.00 96 1012.2
20260906065004 22 309 0.0 0.0 0.00 2.41 0.00 96 1012.2
20260906064506 22 309 0.0 0.0 0.00 2.41 0.00 96 1012.2
20260906064002 22 309 0.0 0.0 0.00 2.41 0.00 96 1012.2
20260906063503 22 309 0.0 0.0 0.00 2.41 0.00 96 1012.3
20260906063008 22 309 0.0 0.0 0.00 2.41 0.00 96 1012.4
20260906062508 22 309 0.0 0.0 0.00 2.41 0.00 96 1012.3
20260906062008 22 309 0.0 0.0 0.00 2.41 0.00 96 1012.3
20260906061506 22 309 0.0 0.0 0.00 2.41 0.00 96 1012.4
20260906061004 22 309 0.0 0.0 0.00 2.41 0.00 96 1012.4
20260906060503 22 309 0.0 0.0 0.00 2.41 0.00 96 1012.4
20260906060006 22 309 0.0 0.0 0.00 2.41 0.00 96 1012.6
20260906055503 22 309 0.0 0.0 0.00 2.41 0.00 96 1012.6
20260906055003 22 309 0.0 0.0 0.00 2.41 0.00 96 1012.6
20260906054503 22 309 0.0 0.0 0.00 2.41 0.00 96 1012.5
20260906054004 22 309 0.0 0.0 0.00 2.41 0.00 96 1012.4
20260906053506 22 309 0.0 0.0 0.00 2.41 0.00 96 1012.5
20260906053006 22 309 0.0 0.0 0.00 2.41 0.00 96 1012.4
20260906052507 22 309 0.0 0.0 0.00 2.41 0.00 96 1012.5
20260906052006 22 309 0.0 0.0 0.00 2.41 0.00 96 1012.4
20260906051504 22 309 0.0 0.0 0.00 2.41 0.00 96 1012.6
20260906051004 22 309 0.0 0.0 0.00 2.41 0.00 96 1012.8
20260906050505 22 309 0.0 0.0 0.00 2.41 0.00 96 1012.7
20260906050008 22 309 0.0 0.0 0.00 2.41 0.00 96 1012.7
20260906045509 22 309 0.0 0.0 0.00 2.41 0.00 96 1012.8
20260906045006 22 309 0.0 0.0 0.00 2.41 0.00 96 1012.7
20260906044506 22 309 0.0 0.0 0.00 2.41 0.00 96 1012.7
20260906044004 22 309 0.0 0.0 0.00 2.41 0.00 96 1012.6
20260906043511 22 309 0.0 0.0 0.00 2.41 0.00 96 1012.5
20260906043010 22 309 0.0 0.0 0.00 2.41 0.00 96 1012.5
20260906042505 22 309 0.0 0.0 0.00 2.41 0.00 96 1012.7
20260906042007 22 309 0.0 0.0 0.00 2.41 0.00 96 1012.7
20260906041510 22 309 0.0 0.0 0.00 2.41 0.00 96 1012.7
20260906041008 22 309 0.0 0.0 0.00 2.41 0.00 95 1012.8
20260906040507 22 309 0.0 0.0 0.00 2.41 0.00 95 1012.7
20260906040009 22 309 0.0 0.0 0.00 2.41 0.00 95 1012.7
20260906035508 22 309 0.0 0.0 0.00 2.41 2.41 95 1012.8
20260906035009 22 309 0.0 0.0 0.00 2.41 2.41 95 1012.7
20260906034509 22 309 0.0 0.0 0.00 2.41 2.41 95 1012.7
20260906034007 22 309 0.0 0.0 0.00 2.41 2.41 95 1012.7
20260906033505 22 309 0.0 0.0 0.00 2.41 2.41 95 1012.7
20260906033008 22 309 0.0 0.0 0.00 2.41 2.41 95 1012.6
20260906032507 22 309 0.0 0.0 0.00 2.41 2.41 95 1012.7
20260906032009 22 309 0.0 0.0 0.00 2.41 2.41 95 1012.7
20260906031514 22 309 0.0 0.0 0.00 2.41 2.41 95 1012.7
20260906031007 22 309 0.0 0.0 0.00 2.41 2.41 95 1012.7
20260906030507 22 309 0.0 0.0 0.00 2.41 2.41 95 1012.7
20260906030011 22 308 0.0 0.0 0.00 2.41 2.41 95 1012.7
20260906025508 22 309 0.0 0.0 0.00 2.41 2.41 95 1012.7
20260906025009 22 309 0.0 0.0 0.00 2.41 2.41 95 1012.6
20260906024512 22 308 0.0 0.0 0.00 2.41 2.41 95 1012.7
20260906024012 22 309 0.0 0.0 0.00 2.41 2.41 95 1012.6
20260906023508 22 308 0.0 0.0 0.00 2.41 2.41 95 1012.5
20260906023018 22 308 0.0 0.0 0.00 2.41 2.41 95 1012.6
20260906022510 22 308 0.0 0.0 0.00 2.41 2.41 95 1012.7
20260906022011 22 309 0.0 0.0 0.00 2.41 2.41 95 1012.6
20260906021512 22 309 0.0 0.0 0.00 2.41 2.41 95 1012.6
20260906021009 22 308 0.0 0.0 0.00 2.41 2.41 95 1012.7
20260906020511 22 308 0.0 0.0 0.00 2.41 2.41 95 1012.7
20260906020014 22 308 0.0 0.0 0.00 2.41 2.41 95 1012.6
20260906015515 22 308 0.0 0.0 0.00 2.41 2.41 95 1012.6
20260906015011 23 308 0.0 0.0 0.00 2.41 2.41 95 1012.7
20260906014513 23 308 0.0 0.0 0.00 2.41 2.41 95 1012.7
20260906014012 23 308 0.0 0.0 0.00 2.41 2.41 95 1012.6
20260906013510 23 308 0.0 0.0 0.00 2.41 2.41 94 1012.4
20260906013016 23 308 0.0 0.0 0.00 2.41 2.41 94 1012.4
20260906012510 23 308 0.0 0.0 0.00 2.41 2.41 94 1012.4
20260906012010 23 308 0.0 0.0 0.00 2.41 2.41 94 1012.3
20260906011518 23 308 0.0 0.0 0.00 2.41 2.41 94 1012.1
20260906011015 23 308 0.0 0.0 0.00 2.41 2.41 94 1012.1
20260906010510 23 309 0.0 0.0 0.00 2.41 2.41 94 1012.1
20260906010016 23 309 0.0 0.0 0.00 2.41 2.41 94 1011.9
20260906005511 23 308 0.0 0.0 0.00 2.41 2.41 94 1012.0
20260906005008 23 308 0.0 0.0 0.00 2.41 2.41 94 1011.9
20260906004517 23 308 0.0 0.0 0.00 2.41 2.41 94 1011.8
20260906004003 23 308 0.0 0.0 0.00 2.41 2.41 94 1011.8
20260906003511 23 308 0.0 0.0 0.00 2.41 2.41 94 1011.7
20260906003024 23 308 0.0 0.0 0.00 2.41 2.41 94 1011.7
20260906002506 23 308 0.0 0.0 0.00 2.41 2.41 93 1011.8
20260906002010 23 308 0.0 0.0 0.00 2.41 2.41 93 1011.6
20260906001516 23 308 0.0 0.0 0.00 2.41 2.41 93 1011.6
20260906001003 23 308 0.0 0.0 0.00 2.41 2.41 93 1011.5
20260906000512 23 308 0.0 0.0 0.00 2.41 2.41 93 1011.3
20260906000004 23 308 0.0 0.0 0.00 2.41 2.41 93 1011.2
20260905235507 24 308 0.0 0.0 0.00 2.41 2.41 92 1011.2
20260905235014 24 308 0.0 0.0 0.00 2.41 2.41 92 1011.2
20260905234508 24 308 0.0 0.0 0.00 2.41 2.41 92 1011.3
20260905234008 24 308 0.0 0.0 0.00 2.41 2.41 92 1011.3
20260905233511 24 308 0.0 0.0 0.00 2.41 2.41 92 1011.1
20260905233006 24 308 0.0 0.0 0.00 2.41 2.41 92 1011.0
20260905232512 24 308 0.0 0.0 0.00 2.44 2.41 91 1010.8
20260905232014 24 308 0.0 0.0 0.00 2.44 2.41 91 1010.8
20260905231506 24 308 0.0 0.0 0.00 2.44 2.41 90 1011.0
20260905231007 24 308 0.0 0.0 0.00 2.44 2.41 89 1011.2
20260905230511 24 308 0.0 0.0 0.00 2.44 2.41 89 1011.3
20260905230004 24 308 0.0 0.0 0.00 2.46 2.41 89 1011.2
20260905225508 25 308 0.0 0.0 0.00 2.67 2.41 89 1011.2
20260905225013 25 308 0.0 0.0 0.00 2.67 2.41 89 1011.2
20260905224504 25 308 0.0 3.2 0.00 2.67 2.41 88 1011.2
20260905224009 25 308 0.0 4.8 0.00 2.67 2.41 87 1011.3
20260905223515 25 338 0.0 4.8 0.00 2.67 2.41 87 1011.2
20260905223015 25 334 0.0 4.8 0.00 2.67 2.41 87 1011.2
20260905222509 25 348 0.0 4.8 0.00 2.67 2.41 87 1011.2
20260905222022 25 325 0.0 1.6 0.00 2.67 2.41 87 1011.2
20260905221510 25 350 0.0 0.0 0.00 2.67 2.41 86 1011.1
20260905221012 25 350 0.0 0.0 0.00 2.67 2.41 86 1011.1
20260905220515 25 350 0.0 0.0 0.00 2.67 2.41 87 1011.2
20260905220007 25 350 0.0 0.0 0.00 2.67 2.41 87 1011.1
20260905215513 25 350 0.0 0.0 0.00 2.84 2.41 86 1011.2
20260905215015 25 350 0.0 0.0 0.00 2.92 2.41 88 1011.1
20260905214507 25 350 0.0 0.0 0.00 2.92 2.41 88 1011.3
20260905214012 24 350 0.0 0.0 0.00 2.92 2.41 88 1011.3
20260905213516 24 350 0.0 0.0 0.00 2.92 2.41 88 1011.3
20260905213008 24 350 0.0 0.0 0.00 2.92 2.41 88 1011.3
20260905212510 24 350 0.0 0.0 0.00 2.92 2.41 87 1011.3
20260905212021 24 309 0.0 0.0 0.00 2.92 2.41 87 1011.2
20260905211522 24 309 0.0 0.0 0.00 2.92 2.41 88 1011.2
20260905211012 25 275 0.0 0.0 0.00 2.92 2.41 88 1011.2
20260905210518 25 275 0.0 0.0 0.00 2.92 2.41 89 1011.3
20260905210011 24 275 0.0 1.6 0.00 2.92 2.41 88 1011.3
20260905205513 24 162 0.0 1.6 0.00 2.92 2.41 88 1011.4
20260905205016 24 175 0.0 1.6 0.00 2.92 2.41 88 1011.4
20260905204511 24 42 0.0 1.6 0.00 2.92 2.41 88 1011.4
20260905204015 24 42 0.0 1.6 0.00 2.92 2.41 90 1011.3
20260905203516 24 123 0.0 3.2 0.00 2.92 2.41 91 1011.4
20260905203012 24 123 0.0 3.2 0.00 2.92 2.41 92 1011.4
20260905202513 24 159 0.0 3.2 0.00 2.92 2.41 93 1011.4
20260905202014 24 198 0.0 4.8 0.00 2.92 2.41 94 1011.4
20260905201517 23 167 0.0 4.8 0.03 2.92 2.41 94 1011.3
20260905201015 23 83 0.0 3.2 0.03 2.92 2.41 94 1011.5
20260905200516 23 59 0.0 3.2 0.03 2.92 2.41 94 1011.4
20260905200015 23 142 0.0 3.2 0.08 2.92 2.41 94 1011.4
20260905195515 23 209 0.0 6.4 0.13 2.92 2.41 94 1011.3
20260905195018 23 17 0.0 6.4 0.13 2.92 2.41 95 1011.5
20260905194516 23 299 1.6 6.4 0.13 2.92 2.41 95 1011.5
20260905194016 23 323 1.6 4.8 0.13 2.92 2.41 94 1011.6
20260905193515 23 309 0.0 0.0 0.15 2.92 2.41 95 1011.6
20260905193018 23 309 0.0 0.0 0.20 2.92 2.41 95 1011.6
20260905192514 23 306 0.0 0.0 0.20 2.92 2.41 95 1011.6
20260905192018 23 339 0.0 0.0 0.20 2.92 2.41 94 1011.6
20260905191519 23 76 0.0 0.0 0.18 2.90 2.39 94 1011.5
20260905191018 23 148 0.0 0.0 0.18 2.90 2.39 94 1011.6
20260905190514 23 148 0.0 0.0 0.18 2.90 2.39 94 1012.1
20260905190034 23 271 0.0 0.0 0.13 2.84 2.34 94 1012.2
20260905185513 23 271 0.0 0.0 0.08 2.79 2.29 94 1012.4
20260905185006 23 271 0.0 0.0 0.08 2.79 2.29 94 1012.4
20260905184503 23 323 0.0 0.0 0.08 2.79 2.29 94 1012.8
20260905184003 23 323 0.0 0.0 0.08 2.79 2.29 93 1012.4
20260905183508 23 331 0.0 0.0 0.05 2.77 2.26 93 1012.1
20260905183002 23 30 0.0 1.6 0.00 2.72 2.21 92 1012.0
20260905182502 23 207 0.0 1.6 0.00 2.72 2.21 92 1012.1
20260905182009 23 161 0.0 4.8 0.00 2.72 2.21 93 1012.0
20260905181503 23 207 0.0 4.8 0.00 2.72 2.21 93 1012.0
20260905181003 23 143 0.0 4.8 0.00 2.72 2.21 93 1012.1
20260905180505 23 144 0.0 4.8 0.00 2.72 2.21 92 1012.1
20260905180004 23 18 0.0 3.2 0.00 2.72 2.21 93 1012.4
20260905175503 23 102 0.0 3.2 0.03 2.72 2.21 93 1012.3
20260905175011 23 120 0.0 6.4 0.08 2.72 2.21 93 1012.4
20260905174502 23 175 0.0 6.4 0.13 2.72 2.21 94 1012.5
20260905174004 23 201 0.0 6.4 0.18 2.72 2.21 94 1012.7
20260905173508 23 144 0.0 6.4 0.23 2.72 2.21 95 1012.7
20260905173007 22 178 0.0 6.4 0.25 2.72 2.21 94 1012.9
20260905172503 23 174 0.0 4.8 0.58 2.72 2.21 95 1012.8
20260905172011 22 148 1.6 4.8 1.19 2.72 2.21 94 1012.5
20260905171511 22 64 0.0 6.4 1.32 2.72 2.21 94 1012.5
20260905171013 22 31 0.0 6.4 1.80 2.72 2.21 94 1012.6
20260905170510 23 21 1.6 6.4 2.21 2.72 2.21 95 1012.5
20260905170031 23 332 0.0 3.2 2.21 2.72 2.21 94 1012.9
20260905165506 23 348 0.0 3.2 2.18 2.67 2.18 94 1013.4
20260905165010 23 347 0.0 3.2 2.13 2.64 2.13 94 1013.8
20260905164503 23 347 0.0 3.2 2.08 2.59 2.08 93 1014.0
20260905164005 23 350 0.0 1.6 2.03 2.54 2.03 93 1014.3
20260905163511 23 335 0.0 1.6 1.98 2.49 1.98 93 1014.1
20260905163004 23 335 0.0 8.0 1.96 2.46 1.96 92 1014.0
20260905162508 23 333 0.0 8.0 1.63 2.13 1.63 92 1014.2
20260905162015 24 343 1.6 6.4 1.02 1.52 1.02 91 1014.2
20260905161505 25 341 0.0 4.8 0.89 1.40 0.89 89 1014.3
20260905161007 26 331 1.6 6.4 0.41 0.91 0.41 86 1014.0
20260905160512 26 350 0.0 6.4 0.00 0.51 0.00 82 1014.1
20260905160004 26 331 0.0 6.4 0.00 0.51 0.00 80 1013.6
20260905155506 27 328 0.0 6.4 0.00 0.51 0.00 76 1013.2
20260905155011 27 296 1.6 6.4 0.00 0.51 0.00 75 1012.9
20260905154504 27 279 1.6 6.4 0.00 0.51 0.00 76 1012.8
20260905154010 27 21 0.0 8.0 0.00 0.51 0.00 75 1012.4
20260905153513 27 55 0.0 8.0 0.00 0.51 0.00 77 1012.5
20260905153005 27 360 0.0 9.7 0.00 0.51 0.00 78 1012.6
20260905152508 27 30 0.0 9.7 0.00 0.51 0.00 76 1012.7
20260905152015 27 24 1.6 8.0 0.00 0.51 0.00 76 1012.8
20260905151505 27 355 1.6 8.0 0.00 0.51 0.00 76 1012.8
20260905151010 28 321 0.0 8.0 0.00 0.51 0.00 77 1012.8
20260905150513 27 5 0.0 8.0 0.00 0.51 0.00 76 1012.8
20260905150006 28 49 1.6 8.0 0.00 0.51 0.00 73 1012.8
20260905145511 28 329 0.0 8.0 0.00 0.51 0.00 75 1012.9
20260905145019 28 355 1.6 8.0 0.00 0.51 0.00 74 1012.8
20260905144508 27 277 0.0 3.2 0.00 0.51 0.00 76 1012.7
20260905144009 27 306 0.0 3.2 0.00 0.51 0.00 75 1012.8
20260905143515 27 67 0.0 1.6 0.00 0.51 0.00 77 1012.7
20260905143009 27 52 0.0 6.4 0.00 0.51 0.00 77 1012.7
20260905142512 27 30 0.0 6.4 0.00 0.51 0.00 79 1012.8
20260905142019 27 272 0.0 0.0 0.00 0.51 0.00 80 1012.7
20260905141510 26 66 0.0 0.0 0.00 0.51 0.00 83 1012.7
20260905141010 26 52 0.0 0.0 0.00 0.51 0.00 83 1012.6
20260905140517 26 333 0.0 0.0 0.00 0.51 0.00 85 1012.4
20260905140011 25 24 0.0 1.6 0.00 0.51 0.00 87 1012.3
20260905135512 25 88 0.0 1.6 0.00 0.51 0.00 87 1012.4
20260905135016 25 42 0.0 0.0 0.00 0.51 0.00 90 1012.3
20260905134512 24 347 0.0 0.0 0.00 0.51 0.00 90 1012.3
20260905134013 24 39 0.0 0.0 0.00 0.51 0.00 91 1012.1
20260905133519 23 44 0.0 0.0 0.00 0.51 0.00 92 1012.2
20260905133010 23 19 0.0 0.0 0.00 0.51 0.00 93 1012.2
20260905132512 23 41 0.0 0.0 0.00 0.51 0.00 94 1012.2
20260905132005 23 27 0.0 0.0 0.00 0.51 0.00 95 1012.2
20260905131513 22 351 0.0 0.0 0.00 0.51 0.00 96 1012.2
20260905131016 22 301 0.0 0.0 0.00 0.51 0.00 96 1012.2
20260905130503 22 39 0.0 0.0 0.00 0.51 0.00 96 1012.0
20260905130018 22 315 0.0 0.0 0.00 0.51 0.00 97 1011.9
20260905125517 22 315 0.0 0.0 0.00 0.51 0.00 97 1011.9
20260905125006 22 315 0.0 0.0 0.00 0.51 0.00 97 1011.9
20260905124529 22 315 0.0 0.0 0.00 0.51 0.00 97 1012.0
20260905124018 22 315 0.0 0.0 0.00 0.51 0.00 97 1012.1
20260905123505 22 315 0.0 0.0 0.00 0.51 0.00 97 1012.2
20260905123031 21 315 0.0 0.0 0.00 0.51 0.00 97 1012.2
20260905122520 21 196 0.0 0.0 0.00 0.51 0.00 97 1012.2
20260905122006 21 196 0.0 0.0 0.00 0.51 0.00 97 1012.2